Regional Weather Roundup
Issued by NWS

Home | Current Version | Previous Version | Text Only | Print | Product List | Glossary Off
Versions: 1 2 3 4 5 6 7 8 9 10 11 12 13 14 15 16 17 18 19 20 21 22 23 24 25 26 27 28 29 30 31 32 33 34 35 36 37 38 39 40 41 42 43 44 45 46 47 48 49 50

000
ASUS43 KMPX 271401
RWRMN
WEATHER ROUNDUP FOR MINNESOTA
NATIONAL WEATHER SERVICE TWIN CITIES/CHANHASSEN MN
900 AM CDT WED JUL 27 2016


NOTE: "FAIR" INDICATES FEW OR NO CLOUDS BELOW 12,000 FEET WITH NO
SIGNIFICANT WEATHER AND/OR OBSTRUCTIONS TO VISIBILITY. N/A MEANS
CURRENT SKY AND/OR WEATHER CONDITIONS ARE NOT AVAILABLE.

MNZ060>063-068>070-271500-
   Twin Cities Metro

CITY           SKY/WX    TMP DP  RH WIND       PRES   REMARKS
TWIN CITIES    CLOUDY    76  68  76 CALM      29.98S
ST PAUL        CLOUDY    75  69  81 SE6       29.98S
CRYSTAL        CLOUDY    76  68  76 S3        29.96S
BLAINE         CLOUDY    77  73  88 CALM      29.97S
LAKEVILLE      LGT RAIN  70  70 100 S6        29.98S
EDEN PRAIRIE   CLOUDY    76  68  76 S7        29.96S
LAKEVILLE      LGT RAIN  70  70 100 S6        29.98S
SOUTH ST PAUL  CLOUDY    74  68  82 CALM      29.97F
LAKE ELMO      PTSUNNY   72  70  94 SE3       29.99F
$$
MNZ001>005-007-008-013>017-022>024-027-028-271500-
   Northwest Minnesota

CITY           SKY/WX    TMP DP  RH WIND       PRES   REMARKS
HALLOCK        SUNNY     63  57  82 N7        30.07S
ROSEAU         PTSUNNY   61  55  82 N6        30.06R
WARROAD        PTSUNNY   68  63  83 NE12      30.06R
THIEF RVR FALL MOSUNNY   68  55  63 N10       30.04F
CROOKSTON      CLOUDY    66  59  77 N10       30.04F
FOSSTON        PTSUNNY   64  59  82 NE6       30.04S
DETROIT LAKES  CLOUDY    64  61  88 N5        30.01S
MOORHEAD       MOSUNNY   66  61  82 N9        30.01F
PARK RAPIDS    RAIN      64  62  93 VRB5      29.99F
MAHNOMEN       CLOUDY    63  59  87 N9        30.02S
$$
MNZ006-009>011-018-025>026-271500-
   North Central Minnesota

CITY           SKY/WX    TMP DP  RH WIND       PRES   REMARKS
BAUDETTE       MOSUNNY   69  57  65 E12       30.04S
FLAG ISLAND    CLOUDY    66  55  68 NE8       30.06S
INTL FALLS     CLOUDY    67  56  67 E8        30.05R
WASKISH        PTSUNNY   66  61  82 E8        30.03S
BIG FORK       CLOUDY    64  57  77 E6        30.03S
LONGVILLE      RAIN      64  63  94 N7        29.99F
GRAND RAPIDS   LGT RAIN  65  63  93 CALM      30.04R
ORR            DRIZZLE   61  57  88 CALM      30.03R
COOK           HVY RAIN  61  59  94 CALM      30.05S
WALKER         RAIN      63  62  96 NE6       30.00F
$$
MNZ012-019>021-037-271500-
   Northeast Minnesota

CITY           SKY/WX    TMP DP  RH WIND       PRES   REMARKS
DULUTH         CLOUDY    67  56  67 E12       30.00S
ELY            RAIN      61  59  94 CALM      30.06R
HIBBING        CLOUDY    66  57  72 NE6       30.02R
EVELETH        CLOUDY    67  56  70 NE7       30.04R
DULUTH HARBOR  CLOUDY    68  63  83 NE7       30.00R
TWO HARBORS    CLOUDY    68  61  77 NE8       29.99S
SILVER BAY     CLOUDY    68  55  64 NE9G20    30.01R
GRAND MARAIS     N/A     68  51  54 NE9       30.03R
G MARAIS ARPRT CLOUDY    63  52  67 NE6       30.07S
$$
MNZ029>031-032-039>041-046>048-054>057-064-271500-
   West Central Minnesota

CITY           SKY/WX    TMP DP  RH WIND       PRES   REMARKS
FERGUS FALLS   CLOUDY    66  66 100 N3        30.00R
WHEATON        PTSUNNY   68  68 100 W5        30.01R
MORRIS         CLOUDY    68  66  94 CALM      29.97R
ALEXANDRIA     CLOUDY    68  65  90 MISG      29.99R
ELBOW LAKE     FAIR      67  66  98 W7        29.99R
WADENA         CLOUDY    63  63 100 E5        29.99R
GLENWOOD       CLOUDY    68  66  94 NE3       29.98R
APPLETON       CLOUDY    70  66  88 NW7       29.98S
BENSON         PTSUNNY   66  63  88 N6        29.98R
ORTONVILLE     MOSUNNY   68  64  88 N5        29.99S
MADISON        CLOUDY    68  64  88 N10       29.98F
WILLMAR        FAIR      72  66  83 NW17      29.99R
$$
MNZ033>034-036-042>043-049>051-058-059-271500-
   Central Minnesota

CITY           SKY/WX    TMP DP  RH WIND       PRES   REMARKS
ST CLOUD       CLOUDY    68  68 100 SE7       29.98R
SAUK CENTRE    PTSUNNY   68  67  96 N8        29.97S
PAYNESVILLE    LGT RAIN  68  68 100 E7        29.96F
AITKIN         CLOUDY    68  63  83 CALM      29.98F
PINE RIVER     LGT RAIN  64  64 100 N7        30.02S
BRAINERD       LGT RAIN  67  66  97 NE5       29.99S
STAPLES        RAIN      63  61  94 NE6       29.99F
LONG PRAIRIE   DRIZZLE   64  63  94 NW7       29.98S
LITTLE FALLS   LGT RAIN  66  63  88 CALM      29.98R
LITCHFIELD     CLOUDY    73  72  94 NE3       29.97S
BUFFALO        CLOUDY    74  69  83 SE3       29.98S
MAPLE LAKE     CLOUDY    73  71  93 CALM      29.99R
HUTCHINSON     MOSUNNY   75  71  88 SE3       29.97F
$$
MNZ037-044-045-052-053-271500-
   East Central Minnesota

CITY           SKY/WX    TMP DP  RH WIND       PRES   REMARKS
PRINCETON      LGT RAIN  72  66  83 CALM      29.98R
MORA           LGT RAIN  64  63  94 CALM      30.00R
CAMBRIDGE      DRIZZLE   72  63  73 CALM      29.96S
RUSH CITY      CLOUDY    68  66  92 CALM      29.98S
MOOSE LAKE     LGT RAIN  64  63  94 CALM      29.98R
HINCKLEY       CLOUDY    66  66 100 CALM      29.99R
CLOQUET        CLOUDY    66  61  82 E7        30.00R
MCGREGOR       CLOUDY    64  63  94 CALM      30.00R
$$
MNZ071>073-080-081-089-090-097-098-271500-
   Southwest Minnesota

CITY           SKY/WX    TMP DP  RH WIND       PRES   REMARKS
MONTEVIDEO     CLOUDY    70  68  94 N10       29.99R
GRANITE FALLS  PTSUNNY   73  69  87 NW7       29.97R
CANBY          CLOUDY    69  65  86 NW13G22   29.99R
MARSHALL       CLOUDY    70  68  93 CALM      29.96S
REDWOOD FALLS  CLOUDY    73  67  81 S3        29.93F
OLIVIA         CLOUDY    73  68  83 SE6       29.92F
PIPESTONE      CLOUDY    72  66  83 NE1       29.98S
WINDOM         PTSUNNY   73  66  78 S6        29.99R
WORTHINGTON    CLOUDY    71  67  87 S6        29.99S
JACKSON        CLOUDY    72  64  78 SW8       30.00S
TRACY          CLOUDY    73  69  87 SW5       29.96F
SLAYTON        CLOUDY    70  65  84 CALM      29.98F
$$
MNZ065>067-074>077-082>085-091>093-271500-
   South Central Minnesota

CITY           SKY/WX    TMP DP  RH WIND       PRES   REMARKS
MANKATO        MOSUNNY   70  63  78 S7        29.99R
NEW ULM        CLOUDY    72  70  94 S6        29.96S
ST JAMES       CLOUDY    66  63  88 S6        29.97F
FAIRMONT       CLOUDY    70  64  83 S7        29.97F
GLENCOE        CLOUDY    75  71  86 S3        29.96F
FARIBAULT      MOSUNNY   72  66  83 N5        29.99F
OWATONNA       CLOUDY    73  64  73 S7        30.00F
WASECA         CLOUDY    72  68  88 S6        30.02R
ALBERT LEA     MOSUNNY   73  66  78 S5        30.01F
$$
MNZ078>079-086>088-094>096-271500-
   Southeast Minnesota

CITY           SKY/WX    TMP DP  RH WIND       PRES   REMARKS
ROCHESTER      PTSUNNY   72  69  90 S6        30.04R
RED WING       CLOUDY    75  66  73 CALM      29.98S
STANTON        CLOUDY    72  66  83 S5        29.98S
DODGE CENTER   CLOUDY    72  68  88 S6        30.02F
WINONA         MOSUNNY   77  68  73 CALM      30.01R
AUSTIN         CLOUDY    72  66  83 S5        30.03S
PRESTON        MOSUNNY   74  65  74 SW6       30.05S
$$
ABBREVIATIONS USED IN REMARKS
   TC - TEMPERATURES IN CELSIUS
  WCI - WIND CHILL INDEX
   HX - HEAT INDEX
  VSB - VISIBILITY
$$




USA.gov is the U.S. government's official web portal to all federal, state and local government web resources and services.